Tracking 18951 objects as of 21-Jan-2018
HD Live streaming from Space Station
objects crossing your sky now

FENGYUN 1C DEB

Track FENGYUN 1C DEB now!
10-day predictions


NORAD ID: 32201
Int'l Code: 1999-025CUX
Perigee: 779.6 km
Apogee: 991.7 km
Inclination: 99.2 °
Period: 102.5 minutes
Semi major axis: 7256 km
RCS: 0.0094 m2 (small)
Launch date: May 10, 1999
Source: People's Republic of China (PRC)
Launch site: Taiyaun Space Center, China (TSC)

Note: This is SATELLITE DEBRIS
aabbcc
Your satellite tracking list
Your tracking list is empty




NASA's NSSDC Master Catalog

Two Line Element Set (TLE):
1 32201U 99025CUX 18018.87675283 +.00000408 +00000-0 +26007-3 0  9997
2 32201 099.2005 035.4431 0146147 298.9412 059.7165 14.04429136555623
Source of the keplerian elements: AFSPC